PDT,Max TemperatureF,Mean TemperatureF,Min TemperatureF,Max Dew PointF,MeanDew PointF,Min DewpointF,Max Humidity, Mean Humidity, Min Humidity, Max Sea Level PressureIn, Mean Sea Level PressureIn, Min Sea Level PressureIn, Max VisibilityMiles, Mean VisibilityMiles, Min VisibilityMiles, Max Wind SpeedMPH, Mean Wind SpeedMPH, Max Gust SpeedMPH,PrecipitationIn, CloudCover, Events, WindDirDegrees
2013-9-1,89,73,57,57,54,50,87,58,28,29.94,29.87,29.77,10,10,10,13,3,18,0.00,0,,345
2013-9-2,83,72,61,57,54,49,84,58,31,29.94,29.90,29.86,10,10,10,13,4,22,0.00,5,,301
2013-9-3,83,74,64,55,53,48,73,52,31,30.01,29.96,29.93,10,10,10,14,4,23,0.00,3,,344
2013-9-4,80,71,62,56,55,53,78,60,42,30.05,30.02,29.98,10,10,10,13,4,18,0.00,6,,336
2013-9-5,69,65,60,57,55,53,78,71,63,30.14,30.06,30.00,10,10,2,9,4,14,0.10,7,Rain-Thunderstorm,352
2013-9-6,81,70,59,58,55,49,90,62,33,30.20,30.13,30.06,10,10,10,15,3,18,T,3,Rain,339
2013-9-7,85,70,54,56,53,47,93,61,29,30.07,30.01,29.91,10,10,10,14,3,17,0.00,2,,350
2013-9-8,88,72,55,58,54,52,86,58,29,30.05,29.99,29.93,10,10,10,21,5,26,0.00,0,,2
2013-9-9,92,76,59,59,55,50,87,56,25,30.01,29.93,29.84,10,10,10,23,5,29,0.00,0,,3
2013-9-10,99,80,60,60,56,50,84,52,20,29.89,29.81,29.70,10,10,10,14,3,16,0.00,0,,356
2013-9-11,96,79,62,60,58,56,84,55,26,29.97,29.87,29.80,10,10,10,15,5,17,0.00,0,,336
2013-9-12,90,75,59,58,56,55,87,61,34,30.01,29.96,29.88,10,10,10,14,4,18,0.00,2,,354
2013-9-13,89,74,58,61,57,55,87,61,34,29.97,29.90,29.78,10,10,10,15,3,18,0.00,2,,349
2013-9-14,87,74,61,61,60,58,90,65,39,29.83,29.78,29.68,10,10,10,15,3,20,0.00,4,,5
2013-9-15,71,66,60,57,54,52,84,67,49,29.94,29.83,29.77,10,10,9,14,4,20,0.00,8,,348
2013-9-16,76,69,61,55,52,48,78,58,38,29.99,29.94,29.88,10,10,10,15,4,20,0.00,5,,350
2013-9-17,69,61,53,59,54,49,100,76,52,30.07,29.93,29.85,10,9,1,16,3,23,0.28,6,Rain-Thunderstorm,317
2013-9-18,75,63,50,52,49,45,96,66,35,30.12,30.07,29.98,10,8,2,10,2,15,0.00,3,,309
2013-9-19,85,66,47,50,47,44,93,60,26,29.99,29.89,29.78,10,10,10,12,1,15,0.00,0,,310
2013-9-20,73,62,50,61,54,46,100,74,47,29.79,29.73,29.70,10,8,2,13,1,18,0.59,5,Rain,135
2013-9-21,67,60,53,59,55,50,100,78,56,29.87,29.76,29.70,10,7,1,9,1,16,0.56,7,Rain,104
2013-9-22,67,60,52,57,53,49,100,78,56,29.94,29.88,29.80,10,9,2,18,4,28,0.06,7,Rain,158
2013-9-23,66,61,56,56,54,53,93,78,63,30.04,30.01,29.95,10,10,4,8,2,12,0.01,8,Rain,59
2013-9-24,64,58,51,56,51,47,93,75,56,30.00,29.97,29.92,10,8,2,10,3,16,0.25,8,Rain,180
2013-9-25,59,54,48,50,47,43,96,79,61,30.08,29.99,29.93,10,9,2,13,2,20,0.15,8,Rain,175
2013-9-26,67,58,48,49,47,40,100,69,37,30.21,30.11,30.08,10,9,2,13,3,17,T,5,,346
2013-9-27,65,55,44,54,48,42,100,76,52,30.24,30.17,30.05,10,9,2,7,1,8,0.05,6,Rain,161
2013-9-28,73,64,54,56,54,50,93,70,47,30.04,29.83,29.69,10,8,2,20,6,36,0.81,7,Rain,207
2013-9-29,60,57,54,57,53,50,93,84,75,29.82,29.74,29.62,10,8,2,13,4,29,0.96,8,Rain,162
2013-9-30,63,55,47,50,48,45,100,78,55,30.07,29.99,29.79,10,10,9,13,3,20,0.02,7,Rain,206